Location: Joplin
(37.0842°N, 94.5131°W)
Time: 19:42:14
(UTC-05:00)

X-37B - Visible Passes

Search period start: 17 September 2021 00:00
Search period end: 27 September 2021 00:00
Orbit: 381 x 393 km, 45.0° (Epoch: 29 August)

Date Brightness Start Highest point End Pass type
(mag) Time Alt. Az. Time Alt. Az. Time Alt. Az.
17 Sep 3.8 06:08:00 10° SE 06:08:15 10° SE 06:08:32 10° SE visible
19 Sep 2.8 05:45:56 13° S 05:47:53 20° SE 05:50:19 10° E visible
20 Sep 0.6 06:22:55 11° WSW 06:25:55 84° SSE 06:29:05 10° ENE visible
21 Sep 1.4 05:27:29 40° SSE 05:27:35 40° SE 05:30:36 10° ENE visible
22 Sep 0.9 06:04:16 25° W 06:05:47 52° NNW 06:08:53 10° NE visible
23 Sep 2.3 05:08:40 32° ENE 05:08:40 32° ENE 05:10:33 10° ENE visible
23 Sep 2.2 06:41:39 10° WNW 06:44:17 24° NNW 06:46:57 10° NE visible
24 Sep 1.6 05:45:19 31° NW 05:45:45 32° NNW 05:48:39 10° NE visible
25 Sep 3.7 04:49:38 16° NE 04:49:38 16° NE 04:50:21 10° NE visible
25 Sep 2.6 06:21:56 10° WNW 06:24:21 20° N 06:26:48 10° NE visible
26 Sep 2.5 05:26:12 23° N 05:26:12 23° N 05:28:24 10° NE visible
